{"data":{"norad_id":58559,"epoch":"2026-09-21T22:03:59.715360Z","epoch_age_seconds":124979,"freshness":"FRESH","line1":"1 58559U 23194C   26264.91944115  .00003331  00000+0  16752-3 0  9998","line2":"2 58559  34.9900 198.3334 0016119 170.9955 189.1048 15.16653301154826","mean_motion":15.16653301,"eccentricity":0.0016119,"inclination_deg":34.99,"raan_deg":198.3334,"arg_perigee_deg":170.9955,"mean_anomaly_deg":189.1048,"bstar":0.00016752,"rev_number":15482,"period_min":94.945891658334,"perigee_km":504.85123865973,"apogee_km":527.07644094709,"semimajor_km":6894.1008398034,"source":"CELESTRAK","updated_at":"2026-09-22T09:00:26.734417Z"}}